KN4IED-WX Weather Reports


time (UTC)temp
F
wind
direction
speed
knots
gust
knots
rain 1hr
in
rain 24hr
in
rain mn
in
humidity
%
barometer
mb
20260504130531 57 154 1.7 3.5 0.00 0.00 0.00 70 1018.5
20260504110523 42 80 0.0 1.7 0.00 0.00 0.00 97 1018.1
20260504100519 42 74 1.7 1.7 0.00 0.00 0.00 97 1017.9
20260504081516 44 74 0.9 1.7 0.00 0.00 0.00 93 1017.7
20260504080552 44 87 1.7 2.6 0.00 0.00 0.00 92 1017.6
20260504050523 49 75 0.9 1.7 0.00 0.00 0.00 80 1018.0
20260504045519 49 82 0.9 1.7 0.00 0.00 0.00 75 1018.0
20260504044535 49 107 0.9 2.6 0.00 0.00 0.00 73 1017.9
20260504043531 49 81 1.7 1.7 0.00 0.00 0.00 74 1017.9
20260504042527 50 78 1.7 1.7 0.00 0.00 0.00 76 1018.0
20260504041523 50 63 0.9 1.7 0.00 0.00 0.00 72 1018.1
20260504040538 50 88 1.7 1.7 0.00 0.00 0.00 71 1018.2
20260504035535 50 75 0.9 1.7 0.00 0.00 0.00 68 1018.2
20260504034551 51 83 1.7 1.7 0.00 0.00 0.00 69 1018.3
20260504033527 51 78 1.7 2.6 0.00 0.00 0.00 70 1018.4
20260504032523 51 79 0.9 1.7 0.00 0.00 0.00 66 1018.2
20260504031520 51 84 0.9 1.7 0.00 0.00 0.00 67 1018.3
20260504030536 51 89 0.9 1.7 0.00 0.00 0.00 67 1018.2
20260504025532 52 107 0.9 1.7 0.00 0.00 0.00 71 1018.1
20260504024528 52 87 0.9 1.7 0.00 0.00 0.00 68 1018.2
20260504023524 53 66 0.9 2.6 0.00 0.00 0.00 67 1018.1
20260504022520 53 84 0.9 1.7 0.00 0.00 0.00 62 1017.9
20260504021516 53 95 0.9 1.7 0.00 0.00 0.00 66 1017.8
20260504020532 54 55 1.7 1.7 0.00 0.00 0.00 63 1017.6
20260504015529 54 95 0.9 1.7 0.00 0.00 0.00 58 1017.5
20260504014525 54 78 0.9 1.7 0.00 0.00 0.00 57 1017.3
20260504013520 55 87 0.9 1.7 0.00 0.00 0.00 59 1017.4
20260504012516 56 87 0.9 1.7 0.00 0.00 0.00 56 1017.2
20260504011532 56 70 0.0 1.7 0.00 0.00 0.00 54 1017.2
20260504010528 57 78 0.9 1.7 0.00 0.00 0.00 50 1017.0
20260504005524 58 68 0.9 1.7 0.00 0.00 0.00 48 1017.0
20260504004520 59 84 0.9 1.7 0.00 0.00 0.00 47 1016.8
20260504003516 60 90 0.9 1.7 0.00 0.00 0.00 44 1016.7
20260504002533 61 103 0.0 1.7 0.00 0.00 0.00 43 1016.6
20260504001549 62 103 0.9 1.7 0.00 0.00 0.00 40 1016.5
20260504000525 63 97 0.0 1.7 0.00 0.00 0.00 39 1016.4
20260503235521 64 93 0.9 1.7 0.00 0.00 0.00 37 1016.4
20260503234518 64 75 0.0 2.6 0.00 0.00 0.00 37 1016.4
20260503233534 65 79 0.9 2.6 0.00 0.00 0.00 37 1016.3
20260503232530 66 77 0.9 4.3 0.00 0.00 0.00 36 1016.3
20260503231526 66 69 0.9 2.6 0.00 0.00 0.00 36 1016.4
20260503230522 67 163 0.0 1.7 0.00 0.00 0.00 34 1016.5
20260503225518 68 74 0.9 3.5 0.00 0.00 0.00 32 1016.6
20260503224555 68 117 0.9 3.5 0.00 0.00 0.00 31 1016.5
20260503223531 69 191 1.7 5.2 0.00 0.00 0.00 32 1016.6
20260503222527 71 175 1.7 7.0 0.00 0.00 0.00 31 1016.5
20260503221523 71 206 1.7 4.3 0.00 0.00 0.00 29 1016.5
20260503220519 71 164 1.7 3.5 0.00 0.00 0.00 30 1016.5
20260503215536 71 218 1.7 4.3 0.00 0.00 0.00 33 1016.7
20260503214531 71 153 1.7 4.3 0.00 0.00 0.00 31 1016.7
20260503213528 71 142 1.7 5.2 0.00 0.00 0.00 33 1016.9
20260503212524 72 203 2.6 5.2 0.00 0.01 0.00 31 1016.8
20260503211519 70 181 1.7 7.8 0.00 0.01 0.00 32 1016.9
20260503210516 70 222 2.6 6.1 0.00 0.01 0.00 30 1016.9
20260503205552 70 204 1.7 4.3 0.00 0.01 0.00 31 1017.1
20260503204528 70 211 3.5 7.0 0.00 0.01 0.00 29 1017.2
20260503203524 71 181 2.6 5.2 0.00 0.04 0.00 28 1017.3
20260503202600 70 168 1.7 4.3 0.00 0.06 0.00 31 1017.4
20260503201517 71 192 2.6 5.2 0.00 0.06 0.00 30 1017.6
20260503200533 69 175 1.7 7.0 0.00 0.06 0.00 30 1017.9
20260503195530 70 190 2.6 6.1 0.00 0.06 0.00 29 1018.0
20260503194546 70 235 2.6 7.0 0.00 0.06 0.00 31 1018.2
20260503193522 69 28 2.6 5.2 0.00 0.06 0.00 34 1018.3
20260503192518 69 210 3.5 8.7 0.00 0.06 0.00 35 1018.6
20260503191534 68 79 2.6 4.3 0.00 0.06 0.00 35 1018.7
20260503190531 69 193 5.2 12.2 0.00 0.06 0.00 34 1018.8
20260503185627 68 174 2.6 6.1 0.00 0.06 0.00 37 1018.9
20260503184523 67 141 3.5 6.1 0.00 0.06 0.00 36 1019.2
20260503183520 67 170 3.5 7.8 0.00 0.06 0.00 37 1019.3
20260503182516 67 207 2.6 6.1 0.00 0.06 0.00 37 1019.4
20260503181532 67 187 3.5 7.0 0.00 0.06 0.00 38 1019.3
20260503180529 67 176 2.6 7.0 0.00 0.06 0.00 36 1019.4
20260503175525 66 178 2.6 6.1 0.00 0.06 0.00 36 1019.5
20260503174521 66 158 3.5 7.0 0.00 0.06 0.00 37 1019.5
20260503173518 65 149 2.6 6.1 0.00 0.06 0.00 37 1019.6
20260503172554 65 210 3.5 7.0 0.00 0.06 0.00 37 1019.7
20260503171530 64 131 3.5 7.8 0.00 0.06 0.00 38 1020.0
20260503170526 64 163 3.5 7.0 0.00 0.06 0.00 39 1020.0
20260503150541 61 38 1.7 3.5 0.00 0.06 0.00 47 1021.0